Regional Weather Roundup
Issued by NWS

Home | Current Version | Previous Version | Text Only | Print | Product List | Glossary On
Versions: 1 2 3 4 5 6 7 8 9 10 11 12 13 14 15 16 17 18 19 20 21 22 23 24 25 26 27 28 29 30 31 32 33 34 35 36 37 38 39 40 41 42 43 44 45 46 47 48 49 50
000
ASHW40 PHFO 250243
RWRHI

WEATHER ROUNDUP FOR HAWAII
NATIONAL WEATHER SERVICE HONOLULU HI
400 PM HST FRI OCT 24 2014

THIS IS AN AUTOMATED REPORT THAT HAS NOT BEEN QUALITY CONTROLLED.

NOTE..."FAIR" INDICATES FEW OR NO CLOUDS BELOW 12,000 FEET WITH NO
SIGNIFICANT WEATHER AND/OR OBSTRUCTIONS TO VISIBILITY.

* - THESE SITES REPORT LIMITED FIELDS

HIZ001>004-250300-
KAUAI-NIIHAU-

CITY           SKY/WX    TMP DP  RH WIND       PRES   REMARKS
LIHUE APT      MOSUNNY   82  70  66 E12       30.00S
PORT ALLEN*      N/A     84 N/A N/A E13G20      N/A
POIPU*           N/A     81 N/A N/A NE7G16      N/A
PRINCEVILLE*     N/A     81 N/A N/A MISG        N/A
KOKOLE POINT*  NOT AVBL
MOLOAA DAIRY*  NOT AVBL
WAIMEA HTS*      N/A     81  64  57 E12G17      N/A
PUU OPAE*        N/A     75  68  78 CALM        N/A
PUU LUA*       NOT AVBL
MAKAHA RIDGE*  NOT AVBL
$$

HIZ005>011-250300-
OAHU-

CITY           SKY/WX    TMP DP  RH WIND       PRES   REMARKS
HONOLULU       MOSUNNY   84  69  60 NE14G23   29.98R
KALAELOA       MOSUNNY   82  71  69 E6G18     29.99R
KANEOHE MCB    MOSUNNY   81  71  71 E9        30.00S
WHEELER FIELD  FAIR      81  67  62 E14       30.01
BELLOWS*         N/A    N/A N/A N/A E15         N/A
KAHUKU*          N/A    N/A N/A N/A NE9G18      N/A
WHEELER*       NOT AVBL
WAIANAE HARBOR NOT AVBL
DILLINGHAM*      N/A     86  70  58 E7G18       N/A  HX  90
KAHUKU TRN*      N/A     79  70  73 E8G18       N/A
KAWAILOA*        N/A     79  68  69 E12G23      N/A
KII*             N/A     82  73  74 E14G20      N/A
MAKUA RANGE*     N/A     79  73  83 SE3G12      N/A
OAHU FOREST NW   N/A     68  68 100 N8G18       N/A
SCHOFIELD BRK*   N/A     77  64  65 MISG        N/A
SCHOFIELD S*   NOT AVBL
WAIANAE VLY*     N/A     82  66  57 NW3G22      N/A
KUAOKALA*        N/A     77  64  65 CALM        N/A
HONOULIUULI*   NOT AVBL
MOKUOLOE IS*     N/A    N/A N/A N/A MISG        N/A
PALEHUA*         N/A     91  70  49 CALM        N/A  HX  97
WAIAWA PHB*    NOT AVBL
$$

HIZ012>013-250300-
MOLOKAI-

CITY           SKY/WX    TMP DP  RH WIND       PRES   REMARKS
MOLOKAI AIRPT  MOSUNNY   81  72  74 NE14G22   29.99R
KALAUPAPA      NOT AVBL
MAKAPULAPAI*     N/A     82  72  69 E16G22      N/A
MOLOKAI 1*       N/A     72  64  78 S8G26       N/A
PUU ALII*        N/A     66  62  88 E2G8        N/A
$$

HIZ016-250300-
KAHOOLAWE-

CITY           SKY/WX    TMP DP  RH WIND       PRES   REMARKS
KAHOOLAWE*       N/A     77 N/A N/A E17G26      N/A
HAKIOAWA*      NOT AVBL
HONOKANAIA*      N/A     86  69  55 E16G29    29.97S HX  90
KANELOA*         N/A     82  68  61 E20G35    29.19F
KEALIALALO*    NOT AVBL
LUA MAKIKA*    NOT AVBL
$$

HIZ014>015-250300-
LANAI-

CITY           SKY/WX    TMP DP  RH WIND       PRES   REMARKS
LANAI CITY     FAIR      78  69  73 NE16G24   30.03S
LANAI 1*         N/A     75  72  88 NE20G30     N/A
$$

HIZ017>028-250300-
MAUI-

CITY           SKY/WX    TMP DP  RH WIND       PRES   REMARKS
KAHULUI        MOSUNNY   86  66  51 NE18G30   29.96R
KAPALUA-W MAUI MOSUNNY   81  70  69 NE20      29.97F
HANA AIRPORT   MOSUNNY   81  72  74 CALM      30.03S
HANA*            N/A     81 N/A N/A E5          N/A
HALEAKALA SUMM   N/A     46  14  27 SE33        N/A
MAALAEA BAY*   NOT AVBL
HALEAKALA*     NOT AVBL
KAUPO GAP*       N/A     70  46  43 N6G16       N/A
KULA 1*          N/A     62  55  77 NW5G10      N/A
$$

HIZ023>026-250300-
BIG ISLAND OF HAWAII COAST AND LOWER SLOPES-

CITY           SKY/WX    TMP DP  RH WIND       PRES   REMARKS
KAILUA KONA    MOSUNNY   84  71  65 SW9       29.95R
HILO           MOSUNNY   84  69  60 E9        29.99R
HONOKAA*       NOT AVBL
KAWAIHAE MWT*    N/A     84 N/A N/A W6          N/A
KAWAIHAE*        N/A     82 N/A N/A W5          N/A
SOUTH POINT*     N/A     77 N/A N/A NE14G20     N/A
UPOLU AIRPORT*   N/A    N/A N/A N/A NE22G29     N/A
KAMUELA*       CLEAR     73  64  73 NE20      30.09S
HAKALAU*         N/A     62  53  71 SE6G12      N/A
KALOKO-HONOKO*   N/A     84  70  61 SW6       29.95R
PALI 2*          N/A     75  59  57 NE13G23     N/A
KEALAKOMO*       N/A     84  70  61 E18G26      N/A
KAUPULEHU*       N/A     81  63  54 W12         N/A
KAPAPALA*        N/A     76  66  71 E2G12       N/A
LOWER KAHUKU*  NOT AVBL
PUHE CS*       NOT AVBL
PUHO CS*         N/A     81  69  65 NE2         N/A
PTA KEAMUKU*     N/A     70  63  78 N9G18       N/A
WAIKOLOA*        N/A     82  66  57 NW8G14      N/A
$$

HIZ027>028-250300-
BIG ISLAND OF HAWAII INTERIOR AND SUMMMITS-

CITY           SKY/WX    TMP DP  RH WIND       PRES   REMARKS
BRADSHAW FIELD MOSUNNY   65  40  39 SW8G21    30.32R
MK VISITOR CEN NOT AVBL
MAUNA KEA*       N/A     37 -13  11 SE16        N/A  WCI  28
MAUNA LOA*       N/A     54  -6   8 MISG        N/A
MAUNA LOA 1*     N/A    N/A N/A N/A MISG        N/A
PTA KIPUKA*      N/A     64  57  77 NW8G15      N/A
PTA RANGE 17*    N/A     63  57  82 NW13G20     N/A
PTA WEST*        N/A     66  63  88 NW12G22     N/A
NENE CABIN*      N/A     57  57 100 E9G17       N/A
AHUMOA*          N/A     58  56  93 W3G12       N/A
PTA PORTABLE*  NOT AVBL
PUU MALI*      NOT AVBL
$$

HIC003-250300-
NORTHWEST ISLANDS-

CITY           SKY/WX    TMP DP  RH WIND       PRES   REMARKS
MIDWAY ISLAND  SUNNY     84  72  65 W8        29.91F
MIDWAY NOS*    NOT AVBL
FRENCH FRIGATE NOT AVBL
$$

PHZ110>124-180-250300-
BUOY REPORTS

STATION/POSITION TIME  TEMP    WIND        PRES    WAVE   SWELL
                       AIR SEA DIR/SP/G            HT/PER HT/DIR
                 (UTC) (F)     (DEG/KT/KT) (MB)    (FT/S) (FT/D)
BUOY 51001       NOT AVBL
BUOY 51101       NOT AVBL
BUOY 51100       0200   79 80   70/ 14/ 16 1016.8S
BUOY 51003       0200   81 82   60/ 10/ 12 1014.2S   5/ 7   5
BUOY 51004       0102   80 81   70/ 14/ 17 1013.8    6/ 7   5/ 90
BARBERS PT BUOY  NOT AVBL
WAIMEA BAY BUOY  0200      82                N/A     4/13   2/320
KAILUA BAY BUOY  0200      82                N/A     5/11   2
LANAI BUOY       0200      83                N/A     3/13   2/180
BARBERS PT 2     0200      82                N/A     5/15   3/200
PAUWELA MAUI     0200      81                N/A     5/13
HILO             0200      81                N/A     5/ 6   2/360
KANEOHE BAY BUOY NOT AVBL
HANALEI KAUAI    NOT AVBL
KAHULUI HARBOR   0200   82 81   50/ 14/ 20 1014.7R
HONOLULU HARBOR  0200   83      80/  5/ 12 1015.6R
KILO NALU        NOT AVBL
HILO HARBOR      0200   88      90/  6/ 10 1015.1R
MOKUOLOE         0200   81 83   80/ 11/ 14 1016.1R
NAWILIWILI       0200      82                N/A
WHOTS BUOY       NOT AVBL
BUOY 51028       NOT AVBL
$$

......................KEY........................................
  SKY/WX - SKY CONDITIONS/PRESENT WEATHER
  TMP    - TEMPERATURE IN FAHRENHEIT
  DWPT   - DEWPOINT IN FAHRENHEIT
  RH     - RELATIVE HUMIDITY IN PERCENT
  WIND   - DIRECTION AND SPEED /MPH FOR ISLANDS...KTS FOR BUOYS/
  PRES   - MEAN SEA LEVEL PRESSURE IN INCHES OF HG
  VSB    - VISIBILITY IN MILES
  HX     - HEAT INDEX
  WCI    - WIND CHILL INDEX
  VRB    - VARIABLE WIND DIRECTION
  N/A    - NOT AVAILABLE



USA.gov is the U.S. government's official web portal to all federal, state and local government web resources and services.